When you browse on this site, cookies collect data to enhance your experience and personalize the content and advertising you see.
Visit our Privacy Policy to learn more. By continuing to use the site, you agree to this use of cookies and data.
  • In Hungary
  • List of Countries
  • For 7 days
  • Water Temperature
  • Satellite Maps
  • Weather Map
  • News
  • Weather Widgets
  • user-avatar
    Login

    Hourly Weather Ballycastle

    Today, 16 January, Wednesday

    Time Temperature Precipitation Wind Pressure Humidity
    00:00 +7°C° 0.1 mm 10 mps 746 mmHg 83%
    01:00 +6°C° 0.8 mm 9 mps 745 mmHg 86%
    02:00 +6°C° 0.8 mm 9 mps 745 mmHg 89%
    03:00 +6°C° 0.8 mm 8 mps 744 mmHg 92%
    04:00 +5°C° 0.5 mm 9 mps 744 mmHg 90%
    05:00 +5°C° 0.5 mm 9 mps 744 mmHg 87%
    06:00 +3°C° 0.5 mm 10 mps 744 mmHg 85%
    07:00 +2°C° 0 mm 10 mps 744 mmHg 84%
    08:00 +2°C° 0 mm 9 mps 744 mmHg 83%
    09:00 +1°C° 0 mm 9 mps 744 mmHg 83%
    10:00 +1°C° 0.1 mm 9 mps 744 mmHg 81%
    11:00 +2°C° 0.1 mm 8 mps 744 mmHg 79%
    12:00 +4°C° 0.1 mm 8 mps 745 mmHg 76%
    13:00 +2°C° 0.2 mm 8 mps 745 mmHg 77%
    14:00 +2°C° 0.2 mm 8 mps 745 mmHg 77%
    15:00 +3°C° 0.2 mm 7 mps 745 mmHg 78%
    16:00 +3°C° 0.1 mm 7 mps 745 mmHg 78%
    17:00 +2°C° 0.1 mm 7 mps 745 mmHg 78%
    18:00 +2°C° 0.1 mm 7 mps 745 mmHg 78%
    19:00 +2°C° 0.2 mm 7 mps 746 mmHg 79%
    20:00 +2°C° 0.2 mm 7 mps 747 mmHg 79%
    21:00 +2°C° 0.2 mm 7 mps 747 mmHg 80%
    22:00 +1°C° 0.1 mm 8 mps 749 mmHg 80%
    23:00 +1°C° 0.1 mm 9 mps 750 mmHg 80%

    Tomorrow, 17 January, Thursday

    Time Temperature Precipitation Wind Pressure Humidity
    00:00 +1°C° 0.1 mm 10 mps 751 mmHg 80%
    01:00 +1°C° 0 mm 10 mps 752 mmHg 77%
    02:00 +1°C° 0 mm 10 mps 753 mmHg 74%
    03:00 +1°C° 0 mm 10 mps 754 mmHg 71%
    04:00 0°C° 0.1 mm 9 mps 755 mmHg 72%
    05:00 0°C° 0.1 mm 9 mps 756 mmHg 72%
    06:00 0°C° 0.1 mm 9 mps 756 mmHg 73%
    07:00 0°C° 0 mm 7 mps 757 mmHg 71%
    08:00 -1°C° 0 mm 6 mps 758 mmHg 68%
    09:00 0°C° 0 mm 5 mps 759 mmHg 66%
    10:00 0°C° 0 mm 4 mps 759 mmHg 65%
    11:00 +2°C° 0 mm 3 mps 759 mmHg 64%
    12:00 +4°C° 0 mm 2 mps 759 mmHg 63%
    13:00 +4°C° 0 mm 2 mps 759 mmHg 65%
    14:00 +4°C° 0 mm 2 mps 759 mmHg 67%
    15:00 +4°C° 0 mm 1 mps 759 mmHg 69%
    16:00 +3°C° 0 mm 2 mps 758 mmHg 72%
    17:00 +2°C° 0 mm 2 mps 758 mmHg 74%
    18:00 0°C° 0 mm 3 mps 758 mmHg 76%
    19:00 -1°C° 0 mm 4 mps 758 mmHg 75%
    20:00 -2°C° 0 mm 6 mps 757 mmHg 73%
    21:00 -2°C° 0 mm 7 mps 757 mmHg 72%
    22:00 -1°C° 0 mm 8 mps 756 mmHg 71%
    23:00 0°C° 0 mm 9 mps 756 mmHg 70%

    Day after tomorrow, 18 January, Friday

    Time Temperature Precipitation Wind Pressure Humidity
    00:00 0°C° 0 mm 10 mps 755 mmHg 69%
    01:00 0°C° 0.5 mm 10 mps 754 mmHg 74%
    02:00 -1°C° 0.5 mm 11 mps 753 mmHg 79%
    03:00 -1°C° 0.5 mm 12 mps 753 mmHg 84%
    04:00 0°C° 0.6 mm 12 mps 752 mmHg 87%
    05:00 0°C° 0.6 mm 13 mps 751 mmHg 89%
    06:00 0°C° 0.6 mm 14 mps 750 mmHg 91%
    07:00 0°C° 0.1 mm 14 mps 750 mmHg 91%
    08:00 0°C° 0.1 mm 14 mps 749 mmHg 91%
    09:00 0°C° 0.1 mm 13 mps 749 mmHg 91%
    10:00 +1°C° 0.2 mm 13 mps 749 mmHg 92%
    11:00 +1°C° 0.2 mm 13 mps 749 mmHg 93%
    12:00 +3°C° 0.2 mm 13 mps 749 mmHg 94%
    13:00 +3°C° 1.4 mm 12 mps 749 mmHg 95%
    14:00 +3°C° 1.4 mm 11 mps 748 mmHg 95%
    15:00 +3°C° 1.4 mm 10 mps 748 mmHg 95%
    16:00 +3°C° 0.7 mm 10 mps 748 mmHg 96%
    17:00 +3°C° 0.7 mm 9 mps 748 mmHg 96%
    18:00 +3°C° 0.7 mm 9 mps 748 mmHg 96%
    19:00 +3°C° 0.3 mm 9 mps 749 mmHg 96%
    20:00 +4°C° 0.3 mm 8 mps 749 mmHg 96%
    21:00 +4°C° 0.3 mm 8 mps 749 mmHg 96%
    22:00 +4°C° 0.1 mm 8 mps 750 mmHg 96%
    23:00 +4°C° 0.1 mm 8 mps 750 mmHg 96%

    19 January, Saturday

    Time Temperature Precipitation Wind Pressure Humidity
    00:00 +4°C° 0.1 mm 8 mps 750 mmHg 96%
    01:00 +4°C° 0 mm 8 mps 750 mmHg 95%
    02:00 +4°C° 0 mm 8 mps 751 mmHg 95%
    03:00 +4°C° 0 mm 7 mps 751 mmHg 95%
    04:00 +4°C° 0 mm 7 mps 751 mmHg 94%
    05:00 +4°C° 0 mm 7 mps 752 mmHg 94%
    06:00 +4°C° 0 mm 7 mps 752 mmHg 94%
    07:00 +3°C° 0 mm 6 mps 753 mmHg 93%
    08:00 +3°C° 0 mm 6 mps 753 mmHg 93%
    09:00 +3°C° 0 mm 5 mps 754 mmHg 93%
    10:00 +3°C° 0 mm 5 mps 754 mmHg 92%
    11:00 +3°C° 0 mm 5 mps 755 mmHg 91%
    12:00 +4°C° 0 mm 4 mps 755 mmHg 90%
    13:00 +4°C° 0 mm 4 mps 756 mmHg 89%
    14:00 +4°C° 0 mm 3 mps 756 mmHg 89%
    15:00 +5°C° 0 mm 3 mps 756 mmHg 89%
    16:00 +4°C° 0 mm 3 mps 757 mmHg 89%
    17:00 +4°C° 0 mm 3 mps 757 mmHg 90%
    18:00 +4°C° 0 mm 3 mps 758 mmHg 90%
    19:00 +4°C° 0 mm 3 mps 758 mmHg 91%
    20:00 +4°C° 0 mm 3 mps 759 mmHg 92%
    21:00 +4°C° 0 mm 3 mps 759 mmHg 92%
    22:00 +4°C° 0.1 mm 3 mps 760 mmHg 92%
    23:00 +4°C° 0.1 mm 3 mps 760 mmHg 92%

    20 January, Sunday

    Time Temperature Precipitation Wind Pressure Humidity
    00:00 +4°C° 0.1 mm 3 mps 760 mmHg 92%
    01:00 +4°C° 0.1 mm 3 mps 761 mmHg 93%
    02:00 +4°C° 0.1 mm 3 mps 761 mmHg 93%
    03:00 +3°C° 0.1 mm 3 mps 761 mmHg 93%
    04:00 +3°C° 0 mm 3 mps 761 mmHg 93%
    05:00 +3°C° 0 mm 3 mps 762 mmHg 93%
    06:00 +2°C° 0 mm 3 mps 762 mmHg 94%
    07:00 +3°C° 0 mm 3 mps 762 mmHg 93%
    08:00 +3°C° 0 mm 3 mps 763 mmHg 92%
    09:00 +3°C° 0 mm 3 mps 764 mmHg 91%
    10:00 +3°C° 0.2 mm 4 mps 764 mmHg 91%
    11:00 +4°C° 0.2 mm 4 mps 764 mmHg 91%
    12:00 +4°C° 0.2 mm 4 mps 765 mmHg 91%
    13:00 +4°C° 0.1 mm 4 mps 765 mmHg 90%
    14:00 +5°C° 0.1 mm 5 mps 765 mmHg 88%
    15:00 +4°C° 0.1 mm 6 mps 765 mmHg 86%
    16:00 +3°C° 0 mm 6 mps 766 mmHg 86%
    17:00 +3°C° 0 mm 5 mps 766 mmHg 85%
    18:00 +2°C° 0 mm 5 mps 767 mmHg 84%
    19:00 +3°C° 0 mm 4 mps 767 mmHg 84%
    20:00 +3°C° 0 mm 4 mps 767 mmHg 84%
    21:00 +2°C° 0 mm 3 mps 768 mmHg 84%
    22:00 +2°C° 0 mm 3 mps 768 mmHg 84%
    23:00 +3°C° 0 mm 2 mps 768 mmHg 84%

    21 January, Monday

    Time Temperature Precipitation Wind Pressure Humidity
    00:00 +3°C° 0 mm 1 mps 768 mmHg 84%
    01:00 +3°C° 0 mm 1 mps 768 mmHg 85%
    02:00 +3°C° 0 mm 1 mps 767 mmHg 86%
    03:00 +3°C° 0 mm 1 mps 767 mmHg 87%
    04:00 +1°C° 0 mm 2 mps 766 mmHg 88%
    05:00 0°C° 0 mm 3 mps 766 mmHg 90%
    06:00 -1°C° 0 mm 4 mps 765 mmHg 91%
    07:00 -1°C° 0 mm 5 mps 765 mmHg 92%
    08:00 -2°C° 0 mm 6 mps 764 mmHg 93%
    09:00 -2°C° 0 mm 7 mps 764 mmHg 94%
    10:00 -1°C° 0 mm 7 mps 763 mmHg 92%
    11:00 0°C° 0 mm 8 mps 762 mmHg 91%
    12:00 +1°C° 0 mm 9 mps 761 mmHg 90%
    13:00 0°C° 0 mm 9 mps 760 mmHg 89%
    14:00 0°C° 0 mm 10 mps 758 mmHg 89%
    15:00 -1°C° 0 mm 11 mps 756 mmHg 88%
    16:00 +1°C° 0.5 mm 11 mps 755 mmHg 88%
    17:00 0°C° 0.5 mm 12 mps 754 mmHg 88%
    18:00 0°C° 0.5 mm 13 mps 753 mmHg 88%
    19:00 +1°C° 0.9 mm 11 mps 753 mmHg 87%
    20:00 +1°C° 0.9 mm 9 mps 752 mmHg 85%
    21:00 +2°C° 0.9 mm 7 mps 752 mmHg 84%
    22:00 0°C° 0.1 mm 8 mps 751 mmHg 84%
    23:00 0°C° 0.1 mm 8 mps 751 mmHg 84%
    Show more